Weather Roundup
Issued by NWS Chicago, IL

Home | Current Version | Previous Version | Graphics & Text | Print | Product List | Glossary On
Versions: 1 2 3 4 5 6 7 8 9 10 11 12 13 14 15 16 17 18 19 20 21 22 23 24 25 26 27 28 29 30 31 32 33 34 35 36 37 38 39 40 41 42 43 44 45 46 47 48 49 50
000
NZUS59 KLOT 270910
HRRLOT

CHICAGO AREA WEATHER ROUNDUP
NATIONAL WEATHER SERVICE CHICAGO/ROMEOVILLE IL
300 AM CST THU NOV 27 2014

NOTE: "FAIR" INDICATES FEW OR NO CLOUDS BELOW 12,000 FEET WITH NO
SIGNIFICANT WEATHER AND/OR OBSTRUCTIONS TO VISIBILITY.

* THESE STATIONS ARE NOT UNDER NWS QUALITY CONTROL. THEY ALSO MAY NOT
  REPORT WEATHER SUCH AS PRECIPITATION OR FOG.

ILZ005-006-012>014-019>023-271000-
NORTHEAST ILLINOIS

CITY           SKY/WX    TMP DP  RH WIND       PRES   REMARKS
OHARE          CLOUDY    24  17  74 NW16      30.22R WCI  11
MIDWAY         FLURRIES  28  21  75 NW10      30.22R WCI  19
AURORA         CLOUDY    20  15  81 NW10      30.25R HAZE    WCI   9
LANSING*       MIX PCPN  28  24  88 NW7       30.21R WCI  20
JOLIET*        CLOUDY    23  19  84 NW7       30.24R FOG     WCI  14
WAUKEGAN       CLOUDY    20  16  84 NW8       30.22R WCI  10
DUPAGE AIRPORT MOCLDY    20  15  81 NW10      30.23R WCI   9
WHEELING       CLOUDY    22  17  81 NW9       30.25R WCI  12
KANKAKEE*      CLOUDY   N/A N/A N/A W9        30.23R
MORRIS*        CLOUDY    22  20  91 NW8       30.25R FOG     WCI  13
LEWIS AIRPORT* CLOUDY    24  20  85 NW9       30.24R WCI  14
NORTHERLY IS     N/A     28  21  75 NW12        N/A  WCI  18
$$

WIZ051-052-058>065-066-070>072-271000-
SOUTHEAST WISCONSIN

CITY           SKY/WX    TMP DP  RH WIND       PRES   REMARKS
MILWAUKEE      CLOUDY    24  18  77 NW9       30.22R WCI  14
KENOSHA*       CLOUDY    20  17  88 NW10      30.22R FOG     WCI   9
RACINE*        CLOUDY    21  16  81 W6        30.23R WCI  13
BURLINGTON     MOCLDY    19  17  91 NW10      30.22S WCI   8
WAUKESHA       LGT SNOW  19  18  93 NW13      30.22S WCI   7
WEST BEND      LGT SNOW  23  19  86 NW6       30.21S WCI  16
$$

INZ001>003-010>013-019-020-271000-
NORTHWEST INDIANA

CITY           SKY/WX    TMP DP  RH WIND       PRES   REMARKS
GARY*          CLOUDY    30  24  79 W8        30.21R WCI  23
MICHIGAN CITY* NOT AVBL
RENSSELAER*    NOT AVBL
VALPARAISO     LGT SNOW  28  25  88 W10       30.18R FOG     WCI  19
$$

LMZ740>746-271000-
SOUTHERN LAKE MICHIGAN

STATION/POSITION TIME  SKY/WX   TEMP WIND        PRES    VSBY
                                AIR  DIR/SP/G
                 (UTC)          (F)  (DEG/KT/KT) (MB)    (MI)
HARRISON CRIB    0900            27  310/ 13/ 15   N/A
BURNHAM HARBOR   0900            28  300/  8/ 12   N/A
CALUMET HARBOR   0900            28  280/  8/ 12 1021.7R
BURNS HARBOR     NOT AVBL
MICHIGAN CITY    0900            29  160/  4/  7   N/A
$$

ABBREVIATIONS USED IN REMARKS
   TC - TEMPERATURE IN CELSIUS
  WCI - WIND CHILL INDEX
   HX - HEAT INDEX
  VSB - VISIBILITY
$$



USA.gov is the U.S. government's official web portal to all federal, state and local government web resources and services.